Regional Weather Roundup
Issued by NWS

Home | Current Version | Previous Version | Graphics & Text | Print | Product List | Glossary On
Versions: 1 2 3 4 5 6 7 8 9 10 11 12 13 14 15 16 17 18 19 20 21 22 23 24 25 26 27 28 29 30 31 32 33 34 35 36 37 38 39 40 41 42 43 44 45 46 47 48 49 50
000
ASUS45 KCYS 282210
RWRWY

WYOMING REGIONAL WEATHER ROUNDUP
NATIONAL WEATHER SERVICE CHEYENNE WY
400 PM MDT MON JUL 28 2014

NOTE:  "FAIR" INDICATES FEW OR NO CLOUDS BELOW 12,000 FEET
WITH NO SIGNIFICANT WEATHER AND/OR OBSTRUCTIONS TO VISIBILITY.

WYZ001-282300-
YELLOWSTONE NATIONAL PARK

CITY           SKY/WX    TMP DP  RH WIND       PRES   REMARKS
LK YELLOWSTONE   N/A     77  32  19 VRB5      30.45F
W YELLOWSTONE  NOT AVBL

$$
WYZ002>013-054>058-071-098>099-282300-
NORTHERN WYOMING

CITY           SKY/WX    TMP DP  RH WIND       PRES   REMARKS
JACKSON        PTSUNNY   82  39  21 S7        30.31S
CODY           NOT AVBL
GREYBULL       SUNNY     95  36  12 VRB5      30.13F HX  90
WORLAND        SUNNY     95  35  12 N8        30.14F HX  90
SHERIDAN       SUNNY     89  46  22 VRB3      30.21F
BUFFALO        SUNNY     84  44  24 VRB3      30.29F
GILLETTE       SUNNY     87  47  24 CALM      30.24F
HULETT         FAIR      82  48  30 MISG      30.29
NEWCASTLE      FAIR      86  45  23 SW5       30.26

$$
WYZ014>020-022>026-101>103-282300-
CENTRAL WYOMING

CITY           SKY/WX    TMP DP  RH WIND       PRES   REMARKS
BIG PINEY      PTSUNNY   88  31  13 SW7       30.34F
PINEDALE       MOCLDY    81  32  17 N6        30.35F
DUBOIS         FAIR      79  30  17 S3        30.38F
LANDER         MOSUNNY   90  37  15 N9G16     30.21F
RIVERTON       MOSUNNY   91  33  12 NE12      30.24F
CASPER         MOSUNNY   91  34  13 E10       30.25F
DOUGLAS        SUNNY     89  38  16 SE7       30.26F

$$
WYZ021-027>030-104>119-282300-
SOUTHERN WYOMING

CITY           SKY/WX    TMP DP  RH WIND       PRES   REMARKS
EVANSTON       CLOUDY    69  49  48 S21G29    30.37R
FORT BRIDGER   FAIR      85  36  17 S20       30.37S
ROCK SPRINGS   MOSUNNY   87  27  11 VRB3      30.30F
DIXON          FAIR      91  29  11 N3        30.30F
RAWLINS        SUNNY     87  31  13 SE8       30.33F
SARATOGA       FAIR      86  30  13 N10G18    30.35F
LARAMIE        MOSUNNY   81  46  29 SE17      30.39F
CHEYENNE       MOSUNNY   82  50  32 S9G16     30.33F
TORRINGTON     SUNNY     87  53  31 SE8       30.22F
PINE BLUFFS    FAIR      82  52  34 E10       30.29F

$$


USA.gov is the U.S. government's official web portal to all federal, state and local government web resources and services.